Theta_e
343 342 342 340 346 342 350 352 353 353 349 350 352 351 349 351 353 352 345 344 342 343 341 341 342 343 344 343 341 337 338 338 338 335 332 334 334 333 332 331 329 328 328 328 328 329 330 330 330
345 343 340 338 345 346 346 348 351 350 352 350 350 351 351 352 347 344 345 344 343 341 340 340 342 344 343 342 341 340 339 336 334 334 333 331 330 329 327 325 324 324 327 330 330 330 330 329 329
344 345 340 339 342 345 346 345 345 345 350 352 350 347 348 349 345 344 345 344 343 340 340 341 343 342 343 342 340 337 332 328 325 325 324 322 322 321 319 318 318 319 321 324 328 328 329 329 329
344 338 337 342 345 343 345 346 346 347 350 347 347 349 346 345 345 344 345 344 341 340 339 341 340 345 345 342 337 329 325 324 323 323 322 320 319 318 318 317 317 320 322 325 325 324 320 323 327
342 340 344 346 348 343 343 343 344 346 347 347 346 348 348 345 345 345 344 343 339 338 338 341 344 343 342 336 327 324 324 323 324 325 324 321 319 317 316 320 320 319 321 322 324 320 320 319 318
347 348 350 349 348 347 343 341 343 344 348 349 349 347 346 345 345 345 344 342 340 338 339 342 342 340 334 329 327 322 319 318 319 321 320 319 318 319 319 321 321 320 320 319 320 319 318 317 316
349 349 350 352 349 344 343 340 342 346 349 349 345 344 345 345 345 344 344 342 339 337 338 340 338 334 329 329 327 321 319 318 318 320 319 319 321 322 321 322 322 322 321 321 321 321 321 321 323
343 345 348 344 345 340 338 343 341 347 348 344 344 347 343 343 345 344 343 341 338 337 338 339 336 333 334 332 324 319 319 319 319 318 318 322 323 323 323 324 323 323 322 322 322 322 323 323 322
337 344 345 345 341 340 334 338 337 339 346 346 347 343 342 345 345 344 343 342 341 340 340 340 336 332 330 326 322 323 323 320 319 319 320 323 324 324 325 324 325 325 324 323 323 324 324 324 323
341 341 342 338 338 338 337 336 338 337 344 344 348 345 345 346 345 344 344 343 342 342 342 341 337 332 329 327 324 325 324 324 323 322 322 324 324 325 325 326 325 325 326 326 325 326 325 324 323
338 342 337 337 338 338 338 338 334 335 342 340 344 347 345 345 345 344 344 343 342 343 342 342 338 332 329 325 322 323 323 324 326 324 324 324 326 326 326 326 326 326 325 325 325 325 326 325 325
342 339 338 339 340 340 339 334 336 335 335 338 341 345 345 345 344 344 344 344 343 342 342 342 340 334 330 326 322 322 323 323 326 326 325 326 326 327 326 327 327 327 327 327 326 326 326 325 324
340 340 338 338 338 337 336 337 337 341 343 345 345 344 344 343 343 343 343 343 343 342 342 341 341 339 331 328 324 321 321 323 325 327 327 327 327 327 327 327 327 327 327 327 327 325 326 324 323
333 337 336 335 334 333 335 339 337 338 342 346 345 344 343 342 341 341 342 342 341 342 342 340 340 339 334 329 325 324 323 323 323 325 327 328 328 328 327 327 328 327 327 327 326 325 325 324 324
332 337 334 334 334 333 333 337 340 336 343 344 344 343 342 340 339 340 340 337 335 334 339 340 340 340 339 337 328 324 322 325 324 326 325 326 328 329 329 329 329 328 327 327 324 324 323 324 323
329 330 332 331 333 332 331 334 339 336 342 343 343 342 341 338 336 335 336 340 339 335 336 339 339 339 339 339 334 328 324 323 328 329 328 329 329 329 330 329 328 328 327 326 325 325 324 323 320
326 331 332 331 330 331 334 335 340 339 339 342 342 341 340 338 337 336 338 340 339 337 337 338 339 339 338 337 334 330 328 328 329 330 331 330 329 329 329 328 327 327 326 326 326 324 323 321 318
331 332 331 331 330 333 335 338 339 342 343 341 339 339 337 334 333 334 338 341 335 335 337 338 337 335 335 334 332 329 328 329 330 330 330 329 329 328 326 324 327 327 327 324 324 324 322 319 316
329 331 331 330 329 333 335 335 334 335 333 339 339 337 334 331 333 338 340 338 335 334 333 334 335 333 332 330 329 330 330 330 330 327 324 323 322 323 323 321 323 326 325 324 323 322 320 318 315
328 330 330 330 332 331 336 335 335 335 333 331 332 332 331 330 337 337 337 337 335 333 333 331 332 332 332 331 330 329 330 331 328 326 322 323 322 322 323 324 324 324 322 320 321 319 317 316 316
329 330 331 330 331 334 335 334 335 334 335 333 333 333 331 330 336 336 336 336 335 334 333 333 331 332 333 331 330 331 331 330 327 322 323 323 322 321 321 321 320 320 320 319 318 317 316 315 316
328 327 329 330 329 331 331 335 329 333 334 336 341 338 333 331 339 336 333 334 336 335 334 333 330 333 333 333 332 331 329 323 322 323 323 322 321 320 318 318 317 316 315 316 316 317 317 315 315
326 328 329 330 328 327 330 332 328 334 334 335 342 339 333 332 336 337 333 334 334 334 334 333 334 334 333 330 329 328 323 322 323 323 323 320 318 316 314 311 310 308 307 307 309 312 313 314 316
327 329 323 321 323 329 327 331 328 333 333 338 339 338 336 336 335 334 333 333 334 334 334 334 332 327 326 326 324 322 323 322 323 323 319 317 313 309 308 307 307 307 307 307 307 309 311 312 313
325 323 328 329 328 331 330 331 331 328 332 330 338 337 336 336 335 334 333 331 331 331 330 328 328 330 324 324 322 324 324 321 320 317 314 308 307 308 308 308 307 307 307 307 307 306 307 308 310
326 324 327 332 332 330 332 337 334 332 333 333 337 336 335 336 333 333 331 330 329 329 328 329 330 326 322 322 324 319 322 319 315 310 308 308 308 308 309 308 308 307 305 306 306 306 306 306 308
330 330 325 332 334 336 334 332 331 334 335 336 337 335 338 336 332 330 329 329 330 331 331 330 326 326 324 324 321 321 317 312 309 307 308 309 309 309 309 307 306 306 306 306 305 305 305 306 307
329 328 334 331 339 340 335 339 336 337 335 335 336 336 335 332 329 328 327 328 331 330 328 325 320 318 318 319 319 315 312 309 308 309 309 309 310 308 305 306 307 307 307 307 306 306 306 306 307
333 332 330 329 330 336 335 334 329 331 333 335 334 332 331 330 328 324 322 325 329 326 324 321 319 320 319 317 313 311 310 309 309 309 309 310 309 305 305 306 307 308 306 306 306 307 307 307 307
331 331 331 334 334 333 331 333 327 328 330 330 331 330 328 327 325 322 322 322 322 323 320 319 320 319 317 313 312 310 309 309 310 310 310 310 307 305 305 306 307 308 308 309 308 307 307 307 307
Wind_Speed
6 4 3 3 4 5 2 2 1 4 1 3 4 3 5 3 3 3 2 12 19 24 20 16 13 12 11 10 9 9 8 8 7 7 6 5 4 3 2 2 1 2 3 3 4 5 6 6 5
4 6 3 2 4 3 3 1 4 4 2 7 6 3 2 2 2 5 9 10 20 21 19 16 13 12 10 9 9 8 6 6 6 6 5 5 3 2 1 1 2 3 5 6 7 7 8 8 8
4 3 3 4 3 2 3 3 3 1 6 1 3 3 3 2 1 10 3 16 22 20 18 15 13 12 10 9 7 6 5 4 4 3 3 3 2 2 0 2 3 5 6 7 8 9 8 9 9
2 4 4 4 1 4 4 2 1 2 1 2 2 3 2 1 7 12 17 21 23 20 17 14 14 12 12 10 8 7 6 6 5 4 3 2 2 0 1 3 5 6 6 7 8 8 8 9 9
4 3 4 3 2 3 4 4 4 5 4 3 3 3 2 2 9 17 23 24 24 22 20 17 17 16 13 11 9 8 7 7 7 6 5 3 2 1 3 4 6 7 6 6 6 6 7 8 8
3 2 4 3 4 3 4 5 6 4 3 3 2 5 4 10 17 20 23 25 23 23 22 20 18 16 14 11 11 9 9 8 7 7 6 5 4 3 4 3 5 7 7 6 6 8 8 8 8
4 3 2 3 2 4 4 7 5 5 6 5 5 6 1 7 14 21 24 23 22 21 21 19 17 16 14 13 12 11 10 8 7 7 6 6 4 3 2 1 2 5 7 7 8 8 8 9 8
4 3 3 3 2 4 3 5 6 7 4 3 7 4 3 8 22 23 24 23 23 22 21 20 18 16 16 15 14 12 11 11 9 9 8 6 5 4 2 2 2 4 5 6 7 7 7 8 8
3 3 3 3 3 3 2 2 2 3 5 4 5 3 1 24 28 26 22 21 23 24 25 23 21 21 19 18 16 15 13 12 10 10 9 8 7 5 5 4 5 5 6 7 8 9 9 9 9
3 3 6 6 2 3 1 4 4 2 3 4 3 5 17 27 24 22 23 22 24 26 27 26 24 23 21 20 19 18 17 15 14 12 10 9 8 6 7 6 7 8 8 10 10 11 12 13 12
3 5 4 5 5 3 3 2 6 8 6 8 7 7 14 20 21 21 21 21 26 29 28 29 25 24 23 23 22 20 18 16 15 13 11 10 10 9 9 9 11 13 13 14 12 12 13 16 14
3 9 6 5 1 1 2 1 2 6 7 4 7 16 14 15 17 21 18 20 25 26 28 28 27 25 25 24 23 22 20 19 18 17 15 13 14 13 13 13 13 16 14 12 12 12 13 14 12
5 6 6 9 6 4 1 2 5 1 8 8 10 13 15 13 14 15 17 18 20 25 29 30 28 25 25 24 23 23 23 21 20 19 18 17 17 17 16 16 16 13 13 12 14 15 14 11 7
5 7 8 4 6 4 2 1 1 3 4 7 7 7 8 9 10 11 13 20 18 23 28 27 27 25 24 21 25 28 24 22 23 22 21 21 21 22 21 20 18 17 16 15 14 10 9 9 11
3 3 5 3 2 2 3 1 3 3 7 5 5 5 6 5 10 13 15 15 18 23 23 27 25 22 24 28 30 31 28 24 25 24 26 24 24 26 25 24 22 24 22 18 16 13 11 11 11
4 5 5 3 2 1 4 6 5 7 6 1 2 3 4 3 7 9 8 10 10 15 23 26 26 23 25 33 31 29 26 28 25 24 24 23 24 20 23 21 24 24 24 25 20 16 14 14 12
7 1 2 7 2 3 3 5 3 6 6 2 1 4 4 3 9 13 8 7 10 12 20 24 23 23 22 26 26 21 22 22 18 14 18 17 14 14 15 16 22 22 22 18 22 23 16 14 14
4 3 3 5 4 4 3 2 5 4 2 4 5 5 5 6 5 6 7 7 11 12 16 16 15 15 17 19 18 14 11 11 9 12 15 13 10 11 12 18 24 24 22 22 27 23 17 17 15
3 3 5 4 4 3 2 4 4 3 2 0 5 6 6 6 1 0 2 6 10 11 12 11 11 8 11 14 12 9 8 8 11 11 7 13 15 16 17 22 20 21 19 23 22 22 18 19 16
5 6 7 4 1 4 2 5 3 3 4 6 6 6 5 3 4 5 3 4 8 11 10 12 10 4 6 12 14 10 9 9 11 9 7 9 13 14 14 15 14 14 15 17 20 18 18 17 12
5 5 4 5 1 2 5 5 4 1 2 1 1 4 3 2 5 3 3 5 6 11 10 10 6 2 4 6 9 10 10 9 9 3 10 12 12 13 14 12 13 13 14 17 18 20 20 22 13
5 4 5 4 3 3 1 4 5 4 5 4 5 5 4 4 5 4 3 5 7 11 9 9 5 5 4 3 7 8 4 6 2 8 11 10 12 14 13 13 14 15 17 17 18 20 22 20 15
11 3 3 3 4 5 2 3 6 2 5 4 4 4 3 2 3 5 4 4 4 7 7 5 3 2 1 1 2 3 2 4 6 9 10 10 12 13 15 16 15 16 16 20 21 21 18 21 16
3 1 6 4 2 0 5 6 5 6 8 4 1 2 4 4 3 5 3 5 5 6 5 4 3 3 0 2 1 2 2 6 8 7 9 11 14 16 17 16 16 17 20 21 23 23 23 22 20
4 6 3 4 3 6 2 3 8 5 4 7 8 6 5 6 5 4 4 6 7 7 7 7 3 2 0 5 4 3 5 4 4 6 9 12 13 17 20 20 22 22 24 21 20 21 22 22 21
3 6 5 7 4 5 2 5 5 2 3 4 8 7 6 7 6 7 9 10 10 10 10 8 7 6 7 5 5 4 2 0 3 6 8 11 15 19 21 23 26 26 27 25 22 20 22 22 21
0 3 3 5 2 2 3 5 3 2 2 5 8 10 9 10 9 7 9 13 13 13 14 13 11 9 8 8 7 5 4 2 5 5 9 13 17 20 23 24 23 24 24 24 22 21 23 22 21
3 4 2 2 2 3 4 4 5 5 7 5 6 8 9 6 6 6 9 14 13 14 13 11 9 9 8 7 8 6 4 5 4 8 12 16 17 19 20 21 24 26 27 26 24 22 21 18 16
1 1 5 3 3 4 1 5 5 9 10 13 9 8 9 8 7 7 9 12 13 13 11 10 10 11 12 12 9 7 7 7 8 12 15 15 16 18 18 21 24 26 25 23 22 20 16 13 14
2 5 5 4 4 2 3 6 3 6 8 9 10 8 6 6 7 6 10 12 13 13 11 11 12 14 14 10 9 9 10 10 12 15 16 14 16 16 17 20 23 24 24 24 22 20 14 11 14
Wind_Direction
112 104 84 23 46 58 350 316 27 318 27 331 58 140 186 156 172 213 357 163 162 160 159 162 159 152 153 152 146 144 145 139 137 127 129 125 120 117 114 92 55 15 6 2 358 356 353 353 348
133 129 78 75 80 58 276 210 202 224 145 130 96 104 113 157 91 109 127 160 162 157 159 160 156 156 153 143 142 138 132 126 118 116 119 126 123 122 92 36 8 354 1 5 1 356 349 349 354
97 175 80 91 98 169 220 210 251 282 185 245 105 54 122 99 75 157 156 159 164 161 162 158 160 154 146 158 157 151 158 151 148 152 164 164 173 190 205 350 348 344 341 342 345 347 349 353 353
165 28 40 78 92 242 217 335 123 92 316 342 86 91 65 143 165 170 158 160 164 165 164 159 155 155 169 179 178 179 177 179 179 184 182 183 200 195 55 49 24 9 355 347 343 345 348 355 2
53 63 49 63 261 245 222 208 166 189 202 152 166 182 177 134 149 158 160 164 170 170 167 161 169 179 188 190 190 190 189 186 188 185 184 182 194 165 115 65 40 24 7 357 346 344 340 342 345
65 97 46 344 307 258 249 186 154 208 172 141 141 158 203 170 159 164 167 170 175 173 172 173 184 190 192 189 194 197 195 192 192 192 190 194 182 163 139 73 40 27 22 19 10 2 356 351 350
72 60 232 251 264 294 230 144 168 183 162 227 135 154 151 173 177 170 172 173 177 180 180 184 187 187 191 196 200 200 196 194 191 192 198 197 187 154 167 110 22 19 17 7 8 2 5 13 8
105 87 293 282 269 275 292 167 165 156 202 83 164 201 226 192 176 170 174 176 180 185 191 193 194 195 198 201 204 202 199 194 193 196 196 194 191 198 214 255 299 326 345 347 347 347 345 351 352
122 49 292 259 217 280 30 76 44 91 126 216 177 145 197 161 162 158 168 181 189 194 197 198 202 201 202 205 205 205 206 203 201 200 200 203 212 221 249 269 289 308 318 332 329 327 324 324 332
113 117 230 214 219 223 215 111 144 184 219 212 172 82 137 148 153 162 175 186 193 200 200 204 204 210 209 210 209 209 208 209 209 208 208 211 225 237 257 264 270 282 292 297 305 306 310 307 305
182 209 235 259 235 197 253 222 201 159 230 218 202 141 155 147 168 180 189 194 196 204 208 208 208 212 216 215 215 214 214 219 222 221 222 224 236 245 255 259 270 283 286 286 293 294 304 307 287
201 243 232 286 305 277 223 173 198 196 224 281 164 160 155 170 180 185 190 200 203 208 216 217 212 213 222 222 223 222 221 222 225 222 226 233 242 248 249 264 279 283 284 287 285 288 298 302 296
227 264 243 246 285 256 233 330 226 12 354 73 122 151 166 174 180 182 192 213 213 214 222 223 222 216 225 230 232 232 231 230 236 240 237 240 248 253 257 260 268 276 269 272 277 281 281 286 276
229 248 303 309 348 355 227 92 4 34 28 101 138 144 158 166 160 180 197 221 225 229 235 227 225 222 220 239 249 246 245 247 246 248 253 253 255 263 266 271 277 273 264 271 276 270 266 273 276
289 303 344 344 24 326 125 336 289 217 99 124 136 141 139 152 163 198 217 244 260 252 234 234 222 226 227 221 233 245 248 253 257 262 261 262 261 261 263 264 269 273 278 276 264 264 272 272 277
46 49 16 318 316 351 129 268 265 45 88 84 98 128 149 140 196 219 265 272 264 232 221 224 221 231 232 223 230 245 247 254 265 273 273 269 263 262 261 272 265 265 273 275 261 268 273 278 280
7 301 323 319 309 292 23 254 331 67 76 102 197 215 221 214 247 257 263 263 250 232 217 212 224 238 239 233 233 250 257 259 262 267 275 270 258 264 269 282 278 263 265 280 281 273 257 261 267
246 287 265 249 282 67 21 330 26 63 131 203 216 229 247 258 270 297 264 246 221 218 215 211 213 229 230 227 234 239 224 230 247 273 275 276 272 289 298 313 283 269 275 272 269 257 251 252 257
213 226 226 250 288 77 326 195 151 137 279 232 237 251 253 243 128 296 145 202 214 219 212 195 193 199 202 201 195 200 216 250 277 268 304 307 305 295 290 302 290 272 274 267 269 262 256 257 254
223 260 273 272 150 133 125 269 273 172 179 191 222 244 241 125 69 56 109 192 205 200 189 185 168 184 223 230 235 237 243 267 268 311 342 356 1 354 337 324 309 306 295 281 274 267 269 272 254
222 204 242 218 126 58 121 306 290 326 237 221 219 261 269 316 98 101 170 193 201 198 201 197 161 72 230 229 233 243 276 282 304 318 339 341 346 356 359 348 339 328 316 311 306 297 277 258 246
285 215 233 228 110 242 140 261 279 228 298 9 340 6 261 246 104 133 154 175 196 204 213 215 217 354 8 261 252 255 261 308 328 345 348 340 340 348 350 346 343 333 341 321 309 305 307 279 242
242 139 245 208 187 117 218 112 264 86 247 260 280 352 51 125 132 141 163 149 176 210 207 186 223 326 323 278 290 246 275 324 318 323 326 341 349 351 349 344 334 333 322 315 304 298 285 269 260
265 123 50 52 101 169 217 153 267 189 197 188 185 54 109 110 117 109 123 140 166 175 179 188 190 140 205 269 186 161 296 324 315 329 351 346 340 339 346 334 326 324 326 317 311 307 299 294 291
83 62 310 329 338 236 86 82 241 235 194 165 170 169 126 128 143 133 151 167 173 171 169 161 185 244 99 153 182 241 278 304 16 5 343 331 338 340 336 327 329 327 328 320 314 308 301 297 290
167 155 176 233 235 270 80 236 256 200 19 59 130 133 143 172 166 181 188 186 177 180 190 199 194 165 167 194 234 261 231 39 348 333 327 336 330 324 317 325 325 321 319 317 314 307 300 300 290
161 223 166 115 24 51 256 296 321 68 91 100 131 153 169 189 184 184 193 196 193 196 192 185 177 186 208 220 224 192 191 285 326 336 325 321 318 314 322 323 323 325 326 329 324 312 304 297 291
166 151 70 7 239 259 284 278 247 224 207 177 168 174 178 190 181 183 203 199 192 193 187 180 186 198 212 202 196 207 248 284 282 299 313 311 310 320 325 327 329 334 335 330 330 319 314 303 294
80 278 46 120 148 188 268 263 218 227 187 185 195 190 185 190 189 190 201 189 189 190 193 200 205 212 193 190 209 240 260 251 281 300 306 304 310 325 327 327 332 334 334 332 326 318 317 307 302
167 213 153 141 228 227 145 270 312 240 178 171 198 191 196 200 197 194 197 186 189 196 203 218 200 192 195 203 232 255 254 266 292 302 309 300 315 321 323 328 331 330 336 332 322 311 306 313 310